{"data":{"norad_id":67272,"intl_designator":"2025-313AA","name":"2025-313AA","alt_names":[],"object_type":"PAYLOAD","status":"ACTIVE","operator":null,"country":"TBD","launch_date":"2025-12-28","launch_site_code":"VOSTO","launch_vehicle":null,"mission":null,"orbit_class":"UNKNOWN","rcs_meters":null,"size_class":null,"mass_kg":null,"dimensions":null,"purposes":[],"wikipedia_slug":null,"has_3d_model":false,"image_url":null,"decayed_at":null,"tle_current":{"epoch":"2026-05-25T03:37:27.772032Z","epoch_age_seconds":58069,"freshness":"FRESH","line1":"1 67272U 25313AA  26145.15101588  .00011246  00000+0  47103-3 0  9996","line2":"2 67272  97.3942 220.2748 0015650  87.4334 272.8694 15.23590729 22455","mean_motion":15.23590729,"eccentricity":0.001565,"inclination_deg":97.3942,"raan_deg":220.2748,"arg_perigee_deg":87.4334,"mean_anomaly_deg":272.8694,"bstar":0.00047103,"rev_number":2245,"period_min":94.513570645388,"perigee_km":484.26397356286,"apogee_km":505.7769564283,"semimajor_km":6873.1574649956,"source":"CELESTRAK","updated_at":"2026-05-25T13:38:06.850732Z"}}}